Showing default

ETIHAD-SAT, 63226

Orbit data source: Space-Track

ETIHAD-SAT, 63226 is a payload satellite owned by Rashid Space Ctr (AE) in SSO that was launched on Sat, 15 Mar 2025 UTC via an FALCON 9 launch vehicle from the Air Force Western Test Range (AFWTR). Payload-class satellites include a variety of spacecraft equipped with specific instruments for various scientific and technological missions. These include communications satellites like Starlink; space stations such as the ISS; scientific satellites like the Hubble; Earth observation satellites from companies like Planet Labs, Umbra, and HawkEye 360; GPS; miniature CubeSats for education and research; and military/defense satellites.

Loading next visibility...
Identifier
63226, 2025-052S
Orbit
SSO
Country
Flag of AEAE / UAE
Related business
Manufacturer
MBRSC/SATREC
Mission
Operational Civil Radar Imaging
Bus & Motor
ETIHAD, Unknown motor
Mass
220 kg wet, ~200 kg dry
Launch date (UTC)
2025-03-15 (1 year ago)
Launch vehicle
FALCON 9
Launch site
Air Force Western Test Range (AFWTR)
Object type
Payload
Rocket body
Debris
Shape & HBR
Box + 2 Pan, 0.9 m
Radar Cross Section
2.585 m², Large (>1 m²)

Expand to show TLE details & history
Last TLE update: 17 hours ago

TLE from 17 hours ago
0 ETIHAD-SAT
1 63226U 25052S   26072.28679241  .00005047  00000-0  22862-3 0  9998
2 63226  97.4076 326.3974 0006972 110.8653 249.3330 15.21292215 55257
Epoch: 2026-03-13T06:52Z
TLE epoch observation values (Epoch: 2026-03-13T06:52:58.864Z)
Latitude
-0°
Longitude
52.22764°
Altitude
506.73 km
Speed
7.61 km/s
True Right ascension
21h 45m 35s
True Declination
0° 00' 00"
Sunlit
Object was in daylight at epoch
Visualization orbit readout
Latitude
Unknown
Longitude
Unknown
Altitude
Unknown
Speed
Unknown
Apparent Right ascension
Unknown
Apparent Declination
Unknown
Sunlit
N/A
Visualization observer readout
Local Sidereal Time
04:34:15
Azimuth
Unknown
Elevation
Unknown
Doppler factor
Unknown
Orbital elements
Apogee altitude
503.701 km
Perigee altitude
494.111 km
Semi-major axis
6,877.043 km
Eccentricity
0.0007
Inclination
97.4076°
RAAN
326.3974°
Arg. of periapsis
110.8653°
True anomaly
249.25827°
Mean anomaly
249.333°
Eccentric anomaly
249.29563°
Mean motion
3.80575 °/min
Orbital period
94.59 mins
BSTAR
0.00022862
Loading maneuver chart data...
Computing Atmospheric mass density...
Loading historical data...
Loading historical data...
Loading historical data...
Loading historical data...
Loading historical data...
Loading historical data...
Loading historical data...

Documentation

Showing up to 5 results
|